Pompano Beach, FL

9:57 PM EDT on June 27, 2017 (GMT -0400)
Pompano Beach

Weather History for KPMP - May, 2014

Change the Weather History Date:

Tuesday, May 20, 2014

  Actual Average Record
Temperature  
Mean Temperature 80 °F -  
Max Temperature 84 °F 87 °F 95 °F (2008)
Min Temperature 75 °F 71 °F 60 °F (1962)
Cooling Degree Days 14    
Growing Degree Days 30 (Base 50)    
Moisture  
Dew Point 64 °F    
Average Humidity 59    
Maximum Humidity 69    
Minimum Humidity 52    
Precipitation  
Precipitation 0.00 in - - ()
Sea Level Pressure  
Sea Level Pressure 30.15 in    
Wind  
Wind Speed 13 mph (ENE)    
Max Wind Speed 17 mph    
Max Gust Speed 23 mph    
Visibility 10 miles    
Events      
Averages and records for this station are not official NWS values.
T = Trace of Precipitation, MM = Missing Value Source: NWS Daily Summary

Daily Weather History Graph

Daily Weather History Graph

Search for Another Location

Airport or City:

Trip Planner

Search our weather history database for the weather conditions in past years. The results will help you decide how hot, cold, wet, or windy it might be!

Date:

Astronomy

May. 20, 2014 Rise Set
Actual Time 6:31 AM EDT 8:02 PM EDT
Civil Twilight 6:06 AM EDT 8:28 PM EDT
Nautical Twilight 5:36 AM EDT 8:58 PM EDT
Astronomical Twilight 5:04 AM EDT 9:29 PM EDT
Moon 12:44 AM EDT (5/20) 12:21 PM EDT (5/20)
Length of Visible Light 14h 21m
Length of Day
13h 31m
Waning Gibbous, 60% of the Moon is Illuminated
May 20
Waning Gibbous
May 21
Last Quarter
May 28
New
Jun 5
First Quarter
Jun 13
Full

Hourly Weather History & Observations

Time (EDT) Temp. Heat Index Dew Point Humidity Pressure Visibility Wind Dir Wind Speed Gust Speed Precip Events Conditions
12:53 AM 77.0 °F - 64.0 °F 64% 30.14 in 10.0 mi East 12.7 mph - N/A   Partly Cloudy
2:53 AM 75.9 °F - 64.0 °F 67% 30.12 in 10.0 mi ENE 13.8 mph - N/A   Scattered Clouds
3:53 AM 75.9 °F - 64.0 °F 67% 30.12 in 10.0 mi ENE 10.4 mph - N/A   Scattered Clouds
5:53 AM 75.9 °F - 64.0 °F 67% 30.13 in 10.0 mi ENE 10.4 mph - N/A   Partly Cloudy
6:53 AM 75.9 °F - 64.9 °F 69% 30.14 in 9.0 mi ENE 11.5 mph - N/A   Partly Cloudy
8:53 AM 80.1 °F 81.9 °F 64.9 °F 60% 30.17 in 10.0 mi ENE 13.8 mph - N/A   Scattered Clouds
9:53 AM 81.0 °F 82.7 °F 64.9 °F 58% 30.18 in 10.0 mi ENE 12.7 mph - N/A   Partly Cloudy
10:53 AM 82.0 °F 83.8 °F 64.9 °F 56% 30.19 in 10.0 mi NE 13.8 mph 21.9 mph N/A   Partly Cloudy
11:53 AM 82.9 °F 85.0 °F 66.0 °F 56% 30.19 in 10.0 mi ENE 16.1 mph - N/A   Partly Cloudy
12:53 PM 82.9 °F 84.6 °F 64.9 °F 54% 30.18 in 10.0 mi ENE 16.1 mph - N/A   Partly Cloudy
1:53 PM 84.0 °F 85.8 °F 64.9 °F 53% 30.17 in 10.0 mi NE 17.3 mph - N/A   Partly Cloudy
2:53 PM 84.0 °F 85.8 °F 64.9 °F 53% 30.17 in 10.0 mi NE 17.3 mph - N/A   Clear
3:53 PM 82.9 °F 84.4 °F 64.0 °F 53% 30.15 in 10.0 mi ENE 15.0 mph - N/A   Partly Cloudy
4:53 PM 82.0 °F 83.1 °F 63.0 °F 52% 30.15 in 10.0 mi ENE 13.8 mph 23.0 mph N/A   Clear
5:53 PM 80.1 °F 81.5 °F 63.0 °F 56% 30.14 in 10.0 mi ENE 12.7 mph 20.7 mph N/A   Partly Cloudy
6:53 PM 80.1 °F 81.2 °F 62.1 °F 54% 30.13 in 10.0 mi NE 15.0 mph - N/A   Clear
7:53 PM 78.1 °F - 61.0 °F 56% 30.14 in 10.0 mi NE 10.4 mph - N/A   Partly Cloudy
8:53 PM 78.1 °F - 63.0 °F 60% 30.15 in 10.0 mi NE 12.7 mph - N/A   Partly Cloudy
9:53 PM 77.0 °F - 63.0 °F 62% 30.15 in 10.0 mi ENE 12.7 mph - N/A   Partly Cloudy
10:53 PM 77.0 °F - 64.0 °F 64% 30.17 in 10.0 mi ENE 13.8 mph 19.6 mph N/A   Partly Cloudy
11:53 PM 77.0 °F - 63.0 °F 62% 30.16 in 10.0 mi ENE 12.7 mph - N/A   Partly Cloudy